Time,TemperatureF,DewpointF,PressureIn,WindDirection,WindDirectionDegrees,WindSpeedMPH,WindSpeedGustMPH,Humidity,HourlyPrecipIn,Conditions,Clouds,dailyrainin,SoftwareType,DateUTC
2013-04-26 00:01:00,54.0,46.0,30.06,East,100,3.0,-999.0,76,-99.99,,,-99.99,,2013-04-26 07:01:00,
2013-04-26 00:11:00,54.0,46.0,30.06,East,100,3.0,-999.0,76,-99.99,,,-99.99,,2013-04-26 07:11:00,
2013-04-26 00:21:00,52.0,46.0,30.07,ESE,120,5.0,-999.0,81,-99.99,,,-99.99,,2013-04-26 07:21:00,
2013-04-26 00:31:00,52.0,46.0,30.07,ESE,120,5.0,-999.0,81,-99.99,,,-99.99,,2013-04-26 07:31:00,
2013-04-26 00:42:00,52.0,46.0,30.07,ESE,120,5.0,-999.0,81,-99.99,,,-99.99,,2013-04-26 07:42:00,
2013-04-26 00:52:00,52.0,46.0,30.08,ESE,110,5.0,-999.0,81,-99.99,,,-99.99,,2013-04-26 07:52:00,
2013-04-26 01:02:00,52.0,46.0,30.08,ESE,110,5.0,-999.0,81,-99.99,,,-99.99,,2013-04-26 08:02:00,
2013-04-26 01:11:00,52.0,46.0,30.08,ESE,110,5.0,-999.0,81,-99.99,,,-99.99,,2013-04-26 08:11:00,
2013-04-26 01:21:00,52.0,46.0,30.08,East,90,3.0,-999.0,81,-99.99,,,-99.99,,2013-04-26 08:21:00,
2013-04-26 01:31:00,52.0,46.0,30.09,ENE,60,3.0,-999.0,81,-99.99,,,-99.99,,2013-04-26 08:31:00,
2013-04-26 01:42:00,52.0,46.0,30.09,ENE,60,3.0,-999.0,81,-99.99,,,-99.99,,2013-04-26 08:42:00,
2013-04-26 01:52:00,52.0,46.0,30.09,ENE,60,3.0,-999.0,81,-99.99,,,-99.99,,2013-04-26 08:52:00,
2013-04-26 02:01:00,52.0,46.0,30.09,ENE,60,3.0,-999.0,81,-99.99,,,-99.99,,2013-04-26 09:01:00,
2013-04-26 02:11:00,52.0,46.0,30.09,ENE,60,3.0,-999.0,81,-99.99,,,-99.99,,2013-04-26 09:11:00,
2013-04-26 02:21:00,50.0,46.0,30.10,NNW,340,5.0,-999.0,87,-99.99,,,-99.99,,2013-04-26 09:21:00,
2013-04-26 02:33:00,48.0,45.0,30.10,NNW,340,3.0,-999.0,87,-99.99,,,-99.99,,2013-04-26 09:33:00,
2013-04-26 02:43:00,48.0,45.0,30.10,NNW,340,3.0,-999.0,87,-99.99,,,-99.99,,2013-04-26 09:43:00,
2013-04-26 02:53:00,48.0,45.0,30.10,NNW,340,3.0,-999.0,87,-99.99,,,-99.99,,2013-04-26 09:53:00,
2013-04-26 03:02:00,48.0,45.0,30.10,NNW,340,3.0,-999.0,87,-99.99,,,-99.99,,2013-04-26 10:02:00,
2013-04-26 03:12:00,48.0,45.0,30.10,NNW,340,3.0,-999.0,87,-99.99,,,-99.99,,2013-04-26 10:12:00,
2013-04-26 03:22:00,48.0,45.0,30.10,NNW,340,5.0,-999.0,87,-99.99,,,-99.99,,2013-04-26 10:22:00,
2013-04-26 03:33:00,46.0,45.0,30.11,NNW,330,3.0,-999.0,93,-99.99,,,-99.99,,2013-04-26 10:33:00,
2013-04-26 03:42:00,46.0,45.0,30.11,NNW,330,3.0,-999.0,93,-99.99,,,-99.99,,2013-04-26 10:42:00,
2013-04-26 03:52:00,48.0,45.0,30.11,North,350,3.0,-999.0,87,-99.99,,,-99.99,,2013-04-26 10:52:00,
2013-04-26 04:02:00,48.0,45.0,30.11,North,350,3.0,-999.0,87,-99.99,,,-99.99,,2013-04-26 11:02:00,
2013-04-26 04:11:00,48.0,45.0,30.11,North,350,3.0,-999.0,87,-99.99,,,-99.99,,2013-04-26 11:11:00,
2013-04-26 04:21:00,48.0,45.0,30.12,NW,310,2.0,-999.0,87,-99.99,,,-99.99,,2013-04-26 11:21:00,
2013-04-26 04:32:00,46.0,45.0,30.12,North,0,0.0,-999.0,93,-99.99,,,-99.99,,2013-04-26 11:32:00,
2013-04-26 04:42:00,46.0,45.0,30.12,North,0,0.0,-999.0,93,-99.99,,,-99.99,,2013-04-26 11:42:00,
2013-04-26 04:52:00,46.0,45.0,30.13,NW,320,3.0,-999.0,93,-99.99,,,-99.99,,2013-04-26 11:52:00,
2013-04-26 05:01:00,46.0,45.0,30.13,NW,320,3.0,-999.0,93,-99.99,,,-99.99,,2013-04-26 12:01:00,
2013-04-26 05:11:00,46.0,45.0,30.13,NW,320,3.0,-999.0,93,-99.99,,,-99.99,,2013-04-26 12:11:00,
2013-04-26 05:21:00,46.0,45.0,30.13,NW,320,3.0,-999.0,93,-99.99,,,-99.99,,2013-04-26 12:21:00,
2013-04-26 05:32:00,46.0,43.0,30.14,West,280,3.0,-999.0,87,-99.99,,,-99.99,,2013-04-26 12:32:00,
2013-04-26 05:42:00,46.0,43.0,30.14,West,280,3.0,-999.0,87,-99.99,,,-99.99,,2013-04-26 12:42:00,
2013-04-26 05:52:00,46.0,43.0,30.14,West,280,2.0,-999.0,87,-99.99,,,-99.99,,2013-04-26 12:52:00,
2013-04-26 06:01:00,46.0,43.0,30.14,West,280,2.0,-999.0,87,-99.99,,,-99.99,,2013-04-26 13:01:00,
2013-04-26 06:11:00,46.0,43.0,30.14,West,280,2.0,-999.0,87,-99.99,,,-99.99,,2013-04-26 13:11:00,
2013-04-26 06:21:00,46.0,43.0,30.15,West,280,6.0,-999.0,87,-99.99,,,-99.99,,2013-04-26 13:21:00,
2013-04-26 06:31:00,46.0,43.0,30.16,West,280,6.0,-999.0,87,-99.99,,,-99.99,,2013-04-26 13:31:00,
2013-04-26 06:42:00,46.0,43.0,30.16,West,280,6.0,-999.0,87,-99.99,,,-99.99,,2013-04-26 13:42:00,
2013-04-26 06:52:00,46.0,43.0,30.16,North,0,0.0,-999.0,87,-99.99,,,-99.99,,2013-04-26 13:52:00,
2013-04-26 07:01:00,46.0,43.0,30.16,North,0,0.0,-999.0,87,-99.99,,,-99.99,,2013-04-26 14:01:00,
2013-04-26 07:11:00,46.0,43.0,30.16,North,0,0.0,-999.0,87,-99.99,,,-99.99,,2013-04-26 14:11:00,
2013-04-26 07:21:00,48.0,45.0,30.18,North,0,0.0,-999.0,87,-99.99,,,-99.99,,2013-04-26 14:21:00,
2013-04-26 07:31:00,48.0,45.0,30.18,North,0,0.0,-999.0,87,-99.99,,,-99.99,,2013-04-26 14:31:00,
2013-04-26 07:42:00,48.0,45.0,30.18,North,0,0.0,-999.0,87,-99.99,,,-99.99,,2013-04-26 14:42:00,
2013-04-26 07:52:00,50.0,46.0,30.19,North,0,0.0,-999.0,87,-99.99,,,-99.99,,2013-04-26 14:52:00,
2013-04-26 08:01:00,50.0,46.0,30.19,North,0,0.0,-999.0,87,-99.99,,,-99.99,,2013-04-26 15:01:00,
2013-04-26 08:11:00,50.0,46.0,30.19,North,0,0.0,-999.0,87,-99.99,,,-99.99,,2013-04-26 15:11:00,
2013-04-26 08:21:00,52.0,46.0,30.20,North,0,0.0,-999.0,81,-99.99,,,-99.99,,2013-04-26 15:21:00,
2013-04-26 08:33:00,54.0,48.0,30.21,North,0,0.0,-999.0,81,-99.99,,,-99.99,,2013-04-26 15:33:00,
2013-04-26 08:43:00,54.0,48.0,30.21,North,0,0.0,-999.0,81,-99.99,,,-99.99,,2013-04-26 15:43:00,
2013-04-26 08:53:00,54.0,48.0,30.21,North,0,0.0,-999.0,81,-99.99,,,-99.99,,2013-04-26 15:53:00,
2013-04-26 09:03:00,54.0,48.0,30.21,North,0,0.0,-999.0,81,-99.99,,,-99.99,,2013-04-26 16:03:00,
2013-04-26 09:12:00,54.0,48.0,30.21,North,0,0.0,-999.0,81,-99.99,,,-99.99,,2013-04-26 16:12:00,
2013-04-26 09:22:00,55.0,48.0,30.21,North,0,0.0,-999.0,76,-99.99,,,-99.99,,2013-04-26 16:22:00,
2013-04-26 09:33:00,57.0,48.0,30.21,North,0,0.0,-999.0,71,-99.99,,,-99.99,,2013-04-26 16:33:00,
2013-04-26 09:42:00,57.0,48.0,30.21,North,0,0.0,-999.0,71,-99.99,,,-99.99,,2013-04-26 16:42:00,
2013-04-26 09:52:00,59.0,48.0,30.21,NW,320,1.0,-999.0,67,-99.99,,,-99.99,,2013-04-26 16:52:00,
2013-04-26 10:02:00,59.0,48.0,30.21,NW,320,1.0,-999.0,67,-99.99,,,-99.99,,2013-04-26 17:02:00,
2013-04-26 10:11:00,59.0,48.0,30.21,NW,320,1.0,-999.0,67,-99.99,,,-99.99,,2013-04-26 17:11:00,
2013-04-26 10:21:00,63.0,48.0,30.22,North,0,0.0,-999.0,59,-99.99,,,-99.99,,2013-04-26 17:21:00,
2013-04-26 10:31:00,63.0,48.0,30.22,NE,40,2.0,-999.0,59,-99.99,,,-99.99,,2013-04-26 17:31:00,
2013-04-26 10:42:00,63.0,48.0,30.22,NE,40,2.0,-999.0,59,-99.99,,,-99.99,,2013-04-26 17:42:00,
2013-04-26 10:52:00,64.0,48.0,30.22,WSW,250,3.0,-999.0,55,-99.99,,,-99.99,,2013-04-26 17:52:00,
2013-04-26 11:02:00,64.0,48.0,30.22,WSW,250,3.0,-999.0,55,-99.99,,,-99.99,,2013-04-26 18:02:00,
2013-04-26 11:11:00,64.0,48.0,30.22,WSW,250,3.0,-999.0,55,-99.99,,,-99.99,,2013-04-26 18:11:00,
2013-04-26 11:22:00,66.0,48.0,30.21,North,0,0.0,-999.0,52,-99.99,,,-99.99,,2013-04-26 18:22:00,
2013-04-26 11:33:00,70.0,50.0,30.21,North,0,0.0,-999.0,49,-99.99,,,-99.99,,2013-04-26 18:33:00,
2013-04-26 11:42:00,70.0,50.0,30.21,North,0,0.0,-999.0,49,-99.99,,,-99.99,,2013-04-26 18:42:00,
2013-04-26 11:52:00,70.0,48.0,30.21,North,0,0.0,-999.0,46,-99.99,,,-99.99,,2013-04-26 18:52:00,
2013-04-26 12:01:00,70.0,48.0,30.21,North,0,0.0,-999.0,46,-99.99,,,-99.99,,2013-04-26 19:01:00,
2013-04-26 12:11:00,70.0,48.0,30.21,North,0,0.0,-999.0,46,-99.99,,,-99.99,,2013-04-26 19:11:00,
2013-04-26 12:22:00,72.0,48.0,30.20,NE,40,5.0,-999.0,43,-99.99,,,-99.99,,2013-04-26 19:22:00,
2013-04-26 12:31:00,73.0,48.0,30.20,SSE,160,5.0,-999.0,40,-99.99,,,-99.99,,2013-04-26 19:31:00,
2013-04-26 12:42:00,73.0,48.0,30.20,SSE,160,5.0,-999.0,40,-99.99,,,-99.99,,2013-04-26 19:42:00,
2013-04-26 12:52:00,73.0,48.0,30.19,SSW,210,5.0,-999.0,40,-99.99,,,-99.99,,2013-04-26 19:52:00,
2013-04-26 13:02:00,73.0,48.0,30.19,SSW,210,5.0,-999.0,40,-99.99,,,-99.99,,2013-04-26 20:02:00,
2013-04-26 13:11:00,73.0,48.0,30.19,SSW,210,5.0,-999.0,40,-99.99,,,-99.99,,2013-04-26 20:11:00,
2013-04-26 13:21:00,75.0,48.0,30.18,North,0,0.0,-999.0,38,-99.99,,,-99.99,,2013-04-26 20:21:00,
2013-04-26 13:32:00,75.0,48.0,30.18,NNW,340,2.0,-999.0,38,-99.99,,,-99.99,,2013-04-26 20:32:00,
2013-04-26 13:42:00,75.0,48.0,30.18,NNW,340,2.0,-999.0,38,-99.99,,,-99.99,,2013-04-26 20:42:00,
2013-04-26 13:52:00,77.0,48.0,30.17,South,180,7.0,-999.0,36,-99.99,,,-99.99,,2013-04-26 20:52:00,
2013-04-26 14:01:00,77.0,48.0,30.17,South,180,7.0,-999.0,36,-99.99,,,-99.99,,2013-04-26 21:01:00,
2013-04-26 14:11:00,77.0,48.0,30.17,South,180,7.0,-999.0,36,-99.99,,,-99.99,,2013-04-26 21:11:00,
2013-04-26 14:21:00,79.0,48.0,30.16,East,100,5.0,-999.0,34,-99.99,,,-99.99,,2013-04-26 21:21:00,
2013-04-26 14:32:00,79.0,50.0,30.16,SSE,160,3.0,-999.0,36,-99.99,,,-99.99,,2013-04-26 21:32:00,
2013-04-26 14:42:00,79.0,50.0,30.16,SSE,160,3.0,-999.0,36,-99.99,,,-99.99,,2013-04-26 21:42:00,
2013-04-26 14:53:00,79.0,48.0,30.16,North,0,0.0,-999.0,34,-99.99,,,-99.99,,2013-04-26 21:53:00,
2013-04-26 15:02:00,79.0,48.0,30.16,North,0,0.0,-999.0,34,-99.99,,,-99.99,,2013-04-26 22:02:00,
2013-04-26 15:12:00,79.0,48.0,30.16,North,0,0.0,-999.0,34,-99.99,,,-99.99,,2013-04-26 22:12:00,
2013-04-26 15:22:00,81.0,48.0,30.15,North,0,0.0,-999.0,32,-99.99,,,-99.99,,2013-04-26 22:22:00,
2013-04-26 15:32:00,81.0,48.0,30.15,North,0,0.0,-999.0,32,-99.99,,,-99.99,,2013-04-26 22:32:00,
2013-04-26 15:42:00,81.0,48.0,30.15,North,0,0.0,-999.0,32,-99.99,,,-99.99,,2013-04-26 22:42:00,
2013-04-26 15:52:00,82.0,50.0,30.14,South,180,6.0,-999.0,32,-99.99,,,-99.99,,2013-04-26 22:52:00,
2013-04-26 16:01:00,82.0,50.0,30.14,South,180,6.0,-999.0,32,-99.99,,,-99.99,,2013-04-26 23:01:00,
2013-04-26 16:11:00,82.0,50.0,30.14,South,180,6.0,-999.0,32,-99.99,,,-99.99,,2013-04-26 23:11:00,
2013-04-26 16:21:00,82.0,52.0,30.13,South,170,5.0,-999.0,34,-99.99,,,-99.99,,2013-04-26 23:21:00,
2013-04-26 16:32:00,82.0,52.0,30.12,SSE,150,7.0,-999.0,34,-99.99,,,-99.99,,2013-04-26 23:32:00,
2013-04-26 16:42:00,82.0,52.0,30.12,SSE,150,7.0,-999.0,34,-99.99,,,-99.99,,2013-04-26 23:42:00,
2013-04-26 16:52:00,82.0,52.0,30.12,South,170,7.0,-999.0,34,-99.99,,,-99.99,,2013-04-26 23:52:00,
2013-04-26 17:01:00,82.0,52.0,30.12,South,170,7.0,-999.0,34,-99.99,,,-99.99,,2013-04-27 00:01:00,
2013-04-26 17:11:00,82.0,52.0,30.12,South,170,7.0,-999.0,34,-99.99,,,-99.99,,2013-04-27 00:11:00,
2013-04-26 17:21:00,82.0,52.0,30.11,SSE,150,8.0,-999.0,34,-99.99,,,-99.99,,2013-04-27 00:21:00,
2013-04-26 17:31:00,82.0,52.0,30.11,SSE,150,8.0,-999.0,34,-99.99,,,-99.99,,2013-04-27 00:31:00,
2013-04-26 17:42:00,82.0,52.0,30.11,SSE,150,8.0,-999.0,34,-99.99,,,-99.99,,2013-04-27 00:42:00,
2013-04-26 17:52:00,82.0,52.0,30.11,SSE,150,8.0,-999.0,34,-99.99,,,-99.99,,2013-04-27 00:52:00,
2013-04-26 18:01:00,82.0,52.0,30.11,SSE,150,8.0,-999.0,34,-99.99,,,-99.99,,2013-04-27 01:01:00,
2013-04-26 18:21:00,82.0,54.0,30.10,SSE,150,6.0,-999.0,37,-99.99,,,-99.99,,2013-04-27 01:21:00,
2013-04-26 18:32:00,81.0,54.0,30.10,SSE,150,5.0,-999.0,39,-99.99,,,-99.99,,2013-04-27 01:32:00,
2013-04-26 18:42:00,81.0,54.0,30.10,SSE,150,5.0,-999.0,39,-99.99,,,-99.99,,2013-04-27 01:42:00,
2013-04-26 18:52:00,81.0,54.0,30.10,ESE,120,7.0,-999.0,39,-99.99,,,-99.99,,2013-04-27 01:52:00,
2013-04-26 19:01:00,81.0,54.0,30.10,ESE,120,7.0,-999.0,39,-99.99,,,-99.99,,2013-04-27 02:01:00,
2013-04-26 19:11:00,81.0,54.0,30.10,ESE,120,7.0,-999.0,39,-99.99,,,-99.99,,2013-04-27 02:11:00,
2013-04-26 19:21:00,79.0,55.0,30.10,ESE,120,9.0,-999.0,44,-99.99,,,-99.99,,2013-04-27 02:21:00,
2013-04-26 19:31:00,77.0,55.0,30.10,ESE,120,7.0,-999.0,47,-99.99,,,-99.99,,2013-04-27 02:31:00,
2013-04-26 19:42:00,77.0,55.0,30.10,ESE,120,7.0,-999.0,47,-99.99,,,-99.99,,2013-04-27 02:42:00,
2013-04-26 19:52:00,75.0,54.0,30.10,SE,130,8.0,-999.0,46,-99.99,,,-99.99,,2013-04-27 02:52:00,
2013-04-26 20:02:00,75.0,54.0,30.10,SE,130,8.0,-999.0,46,-99.99,,,-99.99,,2013-04-27 03:02:00,
2013-04-26 20:11:00,75.0,54.0,30.10,SE,130,8.0,-999.0,46,-99.99,,,-99.99,,2013-04-27 03:11:00,
2013-04-26 20:21:00,72.0,54.0,30.11,ESE,120,5.0,-999.0,53,-99.99,,,-99.99,,2013-04-27 03:21:00,
2013-04-26 20:32:00,70.0,54.0,30.11,SE,130,6.0,-999.0,56,-99.99,,,-99.99,,2013-04-27 03:32:00,
2013-04-26 20:43:00,70.0,54.0,30.11,SE,130,6.0,-999.0,56,-99.99,,,-99.99,,2013-04-27 03:43:00,
2013-04-26 20:53:00,68.0,54.0,30.12,SE,140,5.0,-999.0,59,-99.99,,,-99.99,,2013-04-27 03:53:00,
2013-04-26 21:02:00,68.0,54.0,30.12,SE,140,5.0,-999.0,59,-99.99,,,-99.99,,2013-04-27 04:02:00,
2013-04-26 21:12:00,68.0,54.0,30.12,SE,140,5.0,-999.0,59,-99.99,,,-99.99,,2013-04-27 04:12:00,
2013-04-26 21:22:00,64.0,52.0,30.12,SE,140,7.0,-999.0,63,-99.99,,,-99.99,,2013-04-27 04:22:00,
2013-04-26 21:32:00,64.0,52.0,30.13,SE,140,6.0,-999.0,63,-99.99,,,-99.99,,2013-04-27 04:32:00,
2013-04-26 21:43:00,64.0,52.0,30.13,SE,140,6.0,-999.0,63,-99.99,,,-99.99,,2013-04-27 04:43:00,
2013-04-26 21:53:00,64.0,52.0,30.13,SE,140,6.0,-999.0,63,-99.99,,,-99.99,,2013-04-27 04:53:00,
2013-04-26 22:02:00,64.0,52.0,30.13,SE,140,6.0,-999.0,63,-99.99,,,-99.99,,2013-04-27 05:02:00,
2013-04-26 22:11:00,64.0,52.0,30.13,SE,140,6.0,-999.0,63,-99.99,,,-99.99,,2013-04-27 05:11:00,
2013-04-26 22:22:00,61.0,48.0,30.14,North,0,0.0,-999.0,63,-99.99,,,-99.99,,2013-04-27 05:22:00,
2013-04-26 22:32:00,61.0,48.0,30.14,SSE,150,5.0,-999.0,63,-99.99,,,-99.99,,2013-04-27 05:32:00,
2013-04-26 22:42:00,61.0,48.0,30.14,SSE,150,5.0,-999.0,63,-99.99,,,-99.99,,2013-04-27 05:42:00,
2013-04-26 22:52:00,61.0,48.0,30.14,SSE,150,7.0,-999.0,63,-99.99,,,-99.99,,2013-04-27 05:52:00,
2013-04-26 23:01:00,61.0,48.0,30.14,SSE,150,7.0,-999.0,63,-99.99,,,-99.99,,2013-04-27 06:01:00,
2013-04-26 23:11:00,61.0,48.0,30.14,SSE,150,7.0,-999.0,63,-99.99,,,-99.99,,2013-04-27 06:11:00,
2013-04-26 23:21:00,57.0,48.0,30.14,SSE,150,6.0,-999.0,71,-99.99,,,-99.99,,2013-04-27 06:21:00,
2013-04-26 23:32:00,57.0,48.0,30.14,SE,140,5.0,-999.0,71,-99.99,,,-99.99,,2013-04-27 06:32:00,
2013-04-26 23:42:00,57.0,48.0,30.14,SE,140,5.0,-999.0,71,-99.99,,,-99.99,,2013-04-27 06:42:00,
2013-04-26 23:52:00,57.0,48.0,30.14,ESE,120,6.0,-999.0,71,-99.99,,,-99.99,,2013-04-27 06:52:00,